• In Portugal
  • List of Countries
  • For 7 days
  • Water Temperature
  • Satellite Maps
  • Weather Map
  • Weather Widgets
  • user-avatar
    Login

    Hourly Weather Lankaran

    Today, 22 October, Monday

    Time Temperature Precipitation Wind Pressure Humidity
    00:00 +13°C° 0 mm 2 mps 634 mmHg 53%
    01:00 +13°C° 0 mm 2 mps 634 mmHg 54%
    02:00 +12°C° 0 mm 2 mps 634 mmHg 55%
    03:00 +12°C° 0 mm 2 mps 634 mmHg 58%
    04:00 +12°C° 0 mm 2 mps 634 mmHg 58%
    05:00 +12°C° 0 mm 2 mps 634 mmHg 58%
    06:00 +12°C° 0 mm 2 mps 634 mmHg 57%
    07:00 +13°C° 0 mm 2 mps 635 mmHg 53%
    08:00 +14°C° 0 mm 3 mps 635 mmHg 49%
    09:00 +17°C° 0 mm 3 mps 636 mmHg 46%
    10:00 +17°C° 0 mm 3 mps 636 mmHg 45%
    11:00 +18°C° 0 mm 3 mps 636 mmHg 44%
    12:00 +19°C° 0 mm 4 mps 636 mmHg 42%
    13:00 +19°C° 0.1 mm 4 mps 636 mmHg 42%
    14:00 +19°C° 0.1 mm 4 mps 636 mmHg 42%
    15:00 +18°C° 0 mm 4 mps 635 mmHg 43%
    16:00 +17°C° 0 mm 3 mps 635 mmHg 47%
    17:00 +15°C° 0 mm 2 mps 635 mmHg 51%
    18:00 +14°C° 0 mm 2 mps 635 mmHg 55%
    19:00 +14°C° 0 mm 2 mps 635 mmHg 54%
    20:00 +13°C° 0 mm 2 mps 635 mmHg 53%
    21:00 +13°C° 0 mm 2 mps 635 mmHg 53%
    22:00 +12°C° 0 mm 2 mps 635 mmHg 53%
    23:00 +12°C° 0 mm 2 mps 635 mmHg 53%

    Tomorrow, 23 October, Tuesday

    Time Temperature Precipitation Wind Pressure Humidity
    00:00 +12°C° 0 mm 2 mps 635 mmHg 54%
    01:00 +10°C° 0 mm 2 mps 635 mmHg 54%
    02:00 +10°C° 0 mm 2 mps 635 mmHg 55%
    03:00 +10°C° 0 mm 2 mps 635 mmHg 56%
    04:00 +9°C° 0 mm 2 mps 635 mmHg 58%
    05:00 +9°C° 0 mm 2 mps 635 mmHg 60%
    06:00 +9°C° 0 mm 2 mps 635 mmHg 61%
    07:00 +12°C° 0 mm 2 mps 635 mmHg 56%
    08:00 +14°C° 0 mm 2 mps 636 mmHg 50%
    09:00 +16°C° 0 mm 3 mps 637 mmHg 44%
    10:00 +17°C° 0 mm 3 mps 637 mmHg 42%
    11:00 +17°C° 0 mm 3 mps 636 mmHg 40%
    12:00 +18°C° 0 mm 3 mps 636 mmHg 38%
    13:00 +18°C° 0 mm 3 mps 636 mmHg 38%
    14:00 +18°C° 0 mm 3 mps 636 mmHg 38%
    15:00 +18°C° 0 mm 3 mps 635 mmHg 39%
    16:00 +17°C° 0 mm 3 mps 635 mmHg 43%
    17:00 +15°C° 0 mm 2 mps 635 mmHg 48%
    18:00 +14°C° 0 mm 2 mps 634 mmHg 52%
    19:00 +13°C° 0 mm 2 mps 634 mmHg 51%
    20:00 +13°C° 0 mm 2 mps 634 mmHg 51%
    21:00 +12°C° 0 mm 2 mps 634 mmHg 50%
    22:00 +12°C° 0 mm 2 mps 634 mmHg 49%
    23:00 +12°C° 0 mm 2 mps 634 mmHg 47%

    Day after tomorrow, 24 October, Wednesday

    Time Temperature Precipitation Wind Pressure Humidity
    00:00 +12°C° 0 mm 2 mps 633 mmHg 46%
    01:00 +10°C° 0 mm 2 mps 633 mmHg 45%
    02:00 +10°C° 0 mm 2 mps 633 mmHg 44%
    03:00 +10°C° 0 mm 2 mps 633 mmHg 43%
    04:00 +10°C° 0 mm 2 mps 633 mmHg 45%
    05:00 +10°C° 0 mm 2 mps 633 mmHg 47%
    06:00 +10°C° 0 mm 2 mps 632 mmHg 49%
    07:00 +12°C° 0 mm 3 mps 633 mmHg 46%
    08:00 +14°C° 0 mm 3 mps 634 mmHg 43%
    09:00 +17°C° 0 mm 4 mps 634 mmHg 40%
    10:00 +18°C° 0 mm 4 mps 634 mmHg 38%
    11:00 +19°C° 0 mm 5 mps 634 mmHg 36%
    12:00 +20°C° 0 mm 5 mps 633 mmHg 34%
    13:00 +20°C° 0 mm 5 mps 633 mmHg 34%
    14:00 +20°C° 0 mm 5 mps 632 mmHg 34%
    15:00 +20°C° 0 mm 5 mps 632 mmHg 34%
    16:00 +19°C° 0 mm 5 mps 631 mmHg 37%
    17:00 +17°C° 0 mm 4 mps 631 mmHg 41%
    18:00 +15°C° 0 mm 4 mps 630 mmHg 45%
    19:00 +15°C° 0 mm 4 mps 630 mmHg 44%
    20:00 +14°C° 0 mm 4 mps 630 mmHg 43%
    21:00 +14°C° 0 mm 4 mps 630 mmHg 43%
    22:00 +14°C° 0 mm 4 mps 629 mmHg 44%
    23:00 +13°C° 0 mm 4 mps 629 mmHg 44%

    25 October, Thursday

    Time Temperature Precipitation Wind Pressure Humidity
    00:00 +13°C° 0 mm 4 mps 629 mmHg 45%
    01:00 +13°C° 0 mm 4 mps 628 mmHg 47%
    02:00 +13°C° 0 mm 5 mps 628 mmHg 50%
    03:00 +13°C° 0 mm 5 mps 628 mmHg 52%
    04:00 +13°C° 0 mm 5 mps 628 mmHg 54%
    05:00 +12°C° 0 mm 5 mps 628 mmHg 56%
    06:00 +12°C° 0 mm 5 mps 628 mmHg 58%
    07:00 +14°C° 0 mm 6 mps 628 mmHg 51%
    08:00 +16°C° 0 mm 7 mps 629 mmHg 44%
    09:00 +18°C° 0 mm 8 mps 629 mmHg 37%
    10:00 +21°C° 0 mm 9 mps 629 mmHg 33%
    11:00 +22°C° 0 mm 9 mps 629 mmHg 29%
    12:00 +23°C° 0 mm 10 mps 629 mmHg 25%
    13:00 +23°C° 0 mm 10 mps 628 mmHg 25%
    14:00 +23°C° 0 mm 9 mps 628 mmHg 26%
    15:00 +23°C° 0 mm 9 mps 627 mmHg 26%
    16:00 +21°C° 0 mm 8 mps 627 mmHg 31%
    17:00 +20°C° 0 mm 7 mps 627 mmHg 35%
    18:00 +17°C° 0 mm 6 mps 626 mmHg 40%
    19:00 +16°C° 0 mm 7 mps 627 mmHg 43%
    20:00 +16°C° 0 mm 8 mps 627 mmHg 47%
    21:00 +16°C° 0 mm 9 mps 627 mmHg 51%
    22:00 +15°C° 0 mm 8 mps 627 mmHg 52%
    23:00 +15°C° 0 mm 8 mps 627 mmHg 53%

    26 October, Friday

    Time Temperature Precipitation Wind Pressure Humidity
    00:00 +13°C° 0 mm 8 mps 627 mmHg 54%
    01:00 +14°C° 0 mm 7 mps 627 mmHg 55%
    02:00 +12°C° 0 mm 7 mps 627 mmHg 57%
    03:00 +13°C° 0 mm 6 mps 627 mmHg 59%
    04:00 +11°C° 0 mm 6 mps 627 mmHg 61%
    05:00 +11°C° 0 mm 6 mps 628 mmHg 63%
    06:00 +11°C° 0 mm 6 mps 628 mmHg 66%
    07:00 +13°C° 0.1 mm 6 mps 628 mmHg 64%
    08:00 +13°C° 0.1 mm 6 mps 629 mmHg 62%
    09:00 +14°C° 0.1 mm 7 mps 629 mmHg 60%
    10:00 +15°C° 0 mm 7 mps 629 mmHg 56%
    11:00 +16°C° 0 mm 8 mps 629 mmHg 53%
    12:00 +17°C° 0 mm 8 mps 629 mmHg 49%
    13:00 +17°C° 0.1 mm 8 mps 629 mmHg 49%
    14:00 +16°C° 0.1 mm 9 mps 629 mmHg 48%
    15:00 +16°C° 0.1 mm 9 mps 629 mmHg 48%
    16:00 +13°C° 0.3 mm 8 mps 629 mmHg 55%
    17:00 +11°C° 0.3 mm 8 mps 629 mmHg 63%
    18:00 +10°C° 0.3 mm 7 mps 630 mmHg 70%
    19:00 +9°C° 0 mm 7 mps 630 mmHg 72%
    20:00 +8°C° 0 mm 7 mps 631 mmHg 74%
    21:00 +7°C° 0 mm 6 mps 631 mmHg 75%
    22:00 +7°C° 0 mm 5 mps 632 mmHg 76%
    23:00 +6°C° 0 mm 5 mps 632 mmHg 77%

    27 October, Saturday

    Time Temperature Precipitation Wind Pressure Humidity
    00:00 +6°C° 0 mm 4 mps 632 mmHg 77%
    01:00 +6°C° 0 mm 4 mps 633 mmHg 77%
    02:00 +5°C° 0 mm 4 mps 633 mmHg 76%
    03:00 +5°C° 0 mm 3 mps 633 mmHg 76%
    04:00 +5°C° 0.1 mm 3 mps 634 mmHg 76%
    05:00 +5°C° 0.1 mm 3 mps 634 mmHg 76%
    06:00 +5°C° 0.1 mm 3 mps 635 mmHg 76%
    07:00 +7°C° 0 mm 3 mps 636 mmHg 66%
    08:00 +8°C° 0 mm 3 mps 637 mmHg 57%
    09:00 +10°C° 0 mm 3 mps 638 mmHg 47%
    10:00 +10°C° 0 mm 3 mps 639 mmHg 45%
    11:00 +11°C° 0 mm 3 mps 639 mmHg 43%
    12:00 +11°C° 0 mm 4 mps 640 mmHg 41%
    13:00 +10°C° 0 mm 4 mps 640 mmHg 42%
    14:00 +10°C° 0 mm 4 mps 640 mmHg 44%
    15:00 +10°C° 0 mm 4 mps 640 mmHg 46%
    16:00 +8°C° 0 mm 3 mps 640 mmHg 57%
    17:00 +7°C° 0 mm 3 mps 640 mmHg 67%
    18:00 +6°C° 0 mm 2 mps 640 mmHg 77%
    19:00 +6°C° 0 mm 2 mps 641 mmHg 79%
    20:00 +6°C° 0 mm 2 mps 641 mmHg 81%
    21:00 +6°C° 0 mm 2 mps 641 mmHg 82%
    22:00 +5°C° 0 mm 2 mps 641 mmHg 84%
    23:00 +5°C° 0 mm 2 mps 641 mmHg 85%

    28 October, Sunday

    Time Temperature Precipitation Wind Pressure Humidity
    00:00 +5°C° 0 mm 1 mps 641 mmHg 87%
    01:00 +5°C° 0 mm 1 mps 641 mmHg 87%
    02:00 +5°C° 0 mm 1 mps 641 mmHg 86%
    03:00 +5°C° 0 mm 1 mps 641 mmHg 86%
    04:00 +4°C° 0 mm 1 mps 641 mmHg 86%
    05:00 +4°C° 0 mm 1 mps 641 mmHg 86%
    06:00 +4°C° 0 mm 1 mps 641 mmHg 87%
    07:00 +5°C° 0 mm 2 mps 642 mmHg 78%
    08:00 +7°C° 0 mm 2 mps 642 mmHg 69%
    09:00 +8°C° 0 mm 2 mps 643 mmHg 61%
    10:00 +10°C° 0 mm 2 mps 643 mmHg 56%
    11:00 +12°C° 0 mm 2 mps 643 mmHg 52%
    12:00 +12°C° 0 mm 3 mps 643 mmHg 48%
    13:00 +12°C° 0 mm 3 mps 643 mmHg 50%
    14:00 +11°C° 0 mm 3 mps 642 mmHg 53%
    15:00 +11°C° 0 mm 3 mps 642 mmHg 55%
    16:00 +10°C° 0 mm 2 mps 642 mmHg 64%
    17:00 +9°C° 0 mm 2 mps 642 mmHg 73%
    18:00 +8°C° 0 mm 2 mps 642 mmHg 82%
    19:00 +7°C° 0 mm 2 mps 642 mmHg 83%
    20:00 +7°C° 0 mm 2 mps 642 mmHg 84%
    21:00 +7°C° 0 mm 2 mps 642 mmHg 85%
    22:00 +6°C° 0 mm 2 mps 641 mmHg 86%
    23:00 +7°C° 0 mm 1 mps 641 mmHg 87%
    Show more